Regional Weather Roundup
Issued by NWS

Home | Current Version | Previous Version | Text Only | Print | Product List | Glossary Off
Versions: 1 2 3 4 5 6 7 8 9 10 11 12 13 14 15 16 17 18 19 20 21 22 23 24 25 26 27 28 29 30 31 32 33 34 35 36 37 38 39 40 41 42 43 44 45 46 47 48 49 50

000
ASUS44 KMEG 300300
RWRTN
TENNESSEE HOURLY STATE WEATHER ROUNDUP
NATIONAL WEATHER SERVICE MEMPHIS TN
1000 PM CDT MON AUG 29 2016

TNZ002-004-019-021-049-052-054-088>092-300400-
WEST TENNESSEE

CITY           SKY/WX    TMP DP  RH WIND       PRES   REMARKS
MEMPHIS INTL   CLOUDY    85  73  67 E7        30.07R HX  91
NWS MEMPHIS      N/A     82 N/A N/A MISG        N/A
JACKSON        CLEAR     78  76  93 CALM      30.10R
DYERSBURG      CLEAR     81  73  78 MISG      30.09R
UNION CITY     CLEAR     79  77  94 CALM      30.09R
PARIS          CLEAR     75  73  94 CALM      30.11S
LEXINGTON      CLEAR     77  75  94 CALM      30.09S
$$

TNZ008-025-027-028-033-062-065-066-300400-
NORTH MIDDLE TENNESSEE

CITY           SKY/WX    TMP DP  RH WIND       PRES   REMARKS
NASHVILLE      CLEAR     83  73  72 NE7       30.11R
CLARKSVILLE    CLEAR     79  74  84 NE5       30.11R
COOKEVILLE     CLEAR     75  73  94 CALM      30.12S
CROSSVILLE     CLEAR     74  69  85 N5        30.19R
$$

TNZ061-075-076-078-094-096-097-300400-
SOUTH MIDDLE TENNESSEE

CITY           SKY/WX    TMP DP  RH WIND       PRES   REMARKS
TULLAHOMA      CLEAR     73  70  88 CALM      30.14R
WINCHESTER     CLEAR     75  72  88 CALM      30.12S
COLUMBIA       CLEAR    N/A N/A N/A CALM      30.10R
SHELBYVILLE    CLEAR     75  73  94 CALM      30.12S
$$

TNZ017-018-042-046-047-300400-
NORTHEAST TENNESSEE

CITY           SKY/WX    TMP DP  RH WIND       PRES   REMARKS
TRI CITIES     PTCLDY    74  67  78 N3        30.16S
$$

TNZ012-013-036-069-073-074-300400-
CENTRAL EAST TENNESSEE

CITY           SKY/WX    TMP DP  RH WIND       PRES   REMARKS
KNOXVILLE      PTCLDY    80  64  58 N5        30.10S
OAK RIDGE      CLEAR     78  69  73 CALM      30.13R
GATLINBURG     CLEAR     73  63  68 SE3       30.12S
$$

TNZ083-085-099-300400-
SOUTHEAST TENNESSEE

CITY           SKY/WX    TMP DP  RH WIND       PRES   REMARKS
CHATTANOOGA    CLEAR     76  68  76 CALM      30.09S
$$

SKY/WX REPORTED AS FAIR MEANS FEW OR NO CLOUDS BELOW
12 THOUSAND FEET.





USA.gov is the U.S. government's official web portal to all federal, state and local government web resources and services.